Find OneWeb SL0675

NORAD ID: 55834 Int'l Des: 2023-029 Owner: ONEWEBN Country: UK Constellation: oneweb operational
LEOCIRCULARPOLARONEWEB_TYPE

实时位置

正在加载3D地球...

关于 OneWeb SL0675

正在加载描述...

即将过境

Passes for default location (London). Set your location on the main map for personalized predictions.

高度历史

Loading altitude history...

两行轨道根数

1 55834U 23029AQ 26106.87143424 -.00000748 00000-0 -18998-2 0 9997
2 55834 87.9165 317.2061 0001498 79.8265 280.3037 13.19730650150837
Epoch: Apr 16, 2026 • Age: 12 hours

当前状态

高度 1188.9 km
速度 7.26 km/s
星下点 0.14°N, 160.51°E
发射日期 Mar 9, 2023
运行时间 3.1 years
类型 internet

技术详情

分类 Payload
质量 148.00 kg
干质量 140.00 kg
总质量 148.00 kg
长度 1.30 m
直径 1.00 m
跨度 5.00 m
形状 Trapezoid+2 pan
制造商 ONEWUS
平台类型 ARROW
阶段状态 In Orbit
所有者/国家 ONEWEBN/UK

Most Searched